FW8563 Weather Reports


Display with metric or nautical units.
time (UTC)temp
F
wind
direction
speed
MPH
gust
MPH
rain 1hr
in
rain 24hr
in
rain mn
in
humidity
%
barometer
mb
20240625141812 74 136 4.0 10.0 0.00 0.00 0.00 63 1014.8
20240625140810 73 200 4.0 9.0 0.00 0.00 0.00 67 1014.8
20240625140309 73 221 5.0 10.0 0.00 0.00 0.00 67 1014.7
20240625135807 72 195 4.0 10.0 0.00 0.00 0.00 68 1014.7
20240625135307 72 229 3.0 8.0 0.00 0.00 0.00 70 1014.7
20240625134806 72 207 4.0 8.0 0.00 0.00 0.00 71 1014.8
20240625134303 72 187 4.0 9.0 0.00 0.00 0.00 68 1014.9
20240625133303 73 195 2.0 8.0 0.00 0.00 0.00 68 1014.9
20240625132803 72 236 2.0 7.0 0.00 0.00 0.00 70 1014.9
20240625132307 72 274 1.0 7.0 0.00 0.00 0.00 70 1014.9
20240625131803 72 196 1.0 6.0 0.00 0.00 0.00 71 1014.8
20240625131301 71 172 2.0 6.0 0.00 0.00 0.00 71 1014.8
20240625130758 71 143 2.0 6.0 0.00 0.00 0.00 71 1014.8
20240625130258 71 142 3.0 6.0 0.00 0.00 0.00 72 1014.9
20240625125801 71 221 2.0 5.0 0.00 0.00 0.00 72 1014.8
20240625125301 71 211 1.0 4.0 0.00 0.00 0.00 71 1014.8
20240625124801 71 237 1.0 4.0 0.00 0.00 0.00 72 1014.8
20240625124303 71 227 1.0 5.0 0.00 0.00 0.00 74 1014.9
20240625123800 70 236 2.0 6.0 0.00 0.00 0.00 73 1014.8
20240625123258 70 230 3.0 6.0 0.00 0.00 0.00 74 1014.9
20240625122756 69 229 2.0 6.0 0.00 0.00 0.00 76 1015.0
20240625122257 69 174 2.0 6.0 0.00 0.00 0.00 77 1015.0
20240625121756 69 116 2.0 6.0 0.00 0.00 0.00 75 1014.9
20240625121255 70 224 1.0 5.0 0.00 0.00 0.00 74 1015.1
20240625120758 70 182 2.0 5.0 0.00 0.00 0.00 72 1015.1
20240625120256 70 172 3.0 7.0 0.00 0.00 0.00 72 1015.2
20240625115750 70 131 4.0 8.0 0.00 0.00 0.00 69 1015.1
20240625114238 72 176 3.0 9.0 0.00 0.00 0.00 66 1015.1
20240625113739 71 162 3.0 9.0 0.00 0.00 0.00 66 1015.1
20240625112236 71 144 4.0 9.0 0.00 0.00 0.00 68 1015.3
20240625111737 71 276 5.0 12.0 0.00 0.00 0.00 67 1015.4
20240625111234 70 169 6.0 12.0 0.00 0.00 0.00 69 1015.4
20240625110733 70 251 5.0 11.0 0.00 0.00 0.00 69 1015.3
20240625110234 70 134 4.0 9.0 0.00 0.00 0.00 71 1015.3
20240625105732 71 223 4.0 9.0 0.00 0.00 0.00 70 1015.4
20240625104732 71 200 5.0 10.0 0.00 0.00 0.00 69 1015.4
20240625104233 71 186 4.0 9.0 0.00 0.00 0.00 67 1015.4
20240625103222 71 219 5.0 12.0 0.00 0.00 0.00 68 1015.3
20240625102722 71 232 6.0 12.0 0.00 0.00 0.00 65 1015.4
20240625102224 71 122 5.0 12.0 0.00 0.00 0.00 65 1015.5
20240625101723 71 183 5.0 9.0 0.00 0.01 0.00 67 1015.5
20240625101223 71 193 4.0 9.0 0.00 0.01 0.00 68 1015.5
20240625100723 70 207 4.0 10.0 0.00 0.02 0.00 68 1015.5
20240625100224 70 150 4.0 10.0 0.00 0.02 0.00 68 1015.6
20240625095723 71 224 3.0 9.0 0.00 0.02 0.00 66 1015.3
20240625095225 71 221 5.0 12.0 0.00 0.02 0.00 66 1015.3
20240625094721 70 134 6.0 12.0 0.00 0.02 0.00 66 1015.5
20240625094221 70 240 5.0 11.0 0.00 0.02 0.00 63 1015.5
20240625093215 70 215 4.0 9.0 0.00 0.02 0.00 65 1015.3
20240625092720 71 148 4.0 10.0 0.00 0.02 0.00 67 1015.4
20240625092218 71 139 4.0 11.0 0.00 0.02 0.00 67 1015.4
20240625091217 70 110 4.0 11.0 0.00 0.02 0.00 68 1015.3
20240625090718 70 153 5.0 11.0 0.00 0.02 0.00 69 1015.4
20240625090215 70 125 4.0 10.0 0.00 0.02 0.00 68 1015.5
20240625085715 69 204 4.0 9.0 0.00 0.02 0.00 70 1015.3
20240625085214 69 178 5.0 10.0 0.00 0.02 0.00 70 1015.3
20240625084716 69 198 5.0 13.0 0.00 0.02 0.00 70 1015.4
20240625084215 69 238 4.0 13.0 0.00 0.02 0.00 70 1015.5
20240625083717 68 178 3.0 10.0 0.00 0.02 0.00 75 1015.4
20240625082716 67 139 4.0 11.0 0.00 0.02 0.00 77 1015.5
20240625082213 68 160 5.0 11.0 0.00 0.02 0.00 76 1015.5
20240625081714 67 204 6.0 12.0 0.00 0.02 0.00 76 1015.5
20240625081214 67 126 5.0 12.0 0.00 0.02 0.00 76 1015.4
20240625080715 67 110 5.0 9.0 0.00 0.02 0.00 77 1015.4
20240625080214 67 244 4.0 9.0 0.00 0.02 0.00 77 1015.5
20240625075716 68 130 3.0 11.0 0.00 0.02 0.00 76 1015.4
20240625075214 67 141 4.0 11.0 0.00 0.02 0.00 77 1015.5
20240625074716 67 189 4.0 10.0 0.00 0.02 0.00 78 1015.5
20240625074214 67 132 4.0 10.0 0.00 0.02 0.00 78 1015.5
20240625073713 67 184 3.0 10.0 0.00 0.02 0.00 79 1015.3
20240625073218 67 138 3.0 10.0 0.00 0.02 0.00 79 1015.4
20240625072712 66 257 4.0 8.0 0.00 0.02 0.00 80 1015.4
20240625072212 65 219 4.0 10.0 0.00 0.02 0.00 81 1015.4
20240625071211 66 161 3.0 8.0 0.00 0.02 0.00 80 1015.5
20240625070712 65 110 3.0 11.0 0.00 0.02 0.00 80 1015.4
20240625070213 66 139 3.0 11.0 0.00 0.02 0.00 80 1015.4
20240625065713 65 138 4.0 9.0 0.00 0.02 0.00 80 1015.4
20240625065212 66 133 3.0 8.0 0.00 0.02 0.00 80 1015.3
20240625064713 65 153 4.0 9.0 0.00 0.02 0.00 81 1015.4
20240625064211 65 181 5.0 11.0 0.00 0.02 0.00 82 1015.4
20240625063713 65 171 4.0 11.0 0.00 0.02 0.00 80 1015.5
20240625063209 65 191 4.0 9.0 0.00 0.02 0.00 81 1015.3
20240625062204 65 143 4.0 10.0 0.00 0.02 0.00 84 1015.3
20240625061702 64 143 5.0 10.0 0.00 0.02 0.00 84 1015.3
20240625061202 64 172 4.0 9.0 0.00 0.02 0.00 84 1015.3
20240625060701 64 233 3.0 9.0 0.00 0.02 0.00 84 1015.2
20240625060201 64 136 3.0 9.0 0.00 0.02 0.00 84 1015.2
20240625055658 64 215 4.0 9.0 0.00 0.02 0.00 84 1015.1
20240625054658 64 143 3.0 9.0 0.00 0.02 0.00 84 1015.0
20240625053700 63 141 3.0 7.0 0.00 0.02 0.00 86 1015.0
20240625053202 63 163 3.0 6.0 0.00 0.02 0.00 86 1014.9
20240625052657 63 134 2.0 7.0 0.00 0.02 0.00 86 1014.9
20240625052158 62 107 2.0 7.0 0.00 0.02 0.00 86 1014.8
20240625051655 62 141 3.0 7.0 0.00 0.02 0.00 86 1014.9
20240625051155 62 129 2.0 7.0 0.00 0.02 0.00 86 1014.8
20240625050656 62 146 2.0 7.0 0.00 0.02 0.00 85 1014.8
20240625050156 62 137 1.0 5.0 0.00 0.02 0.00 85 1014.7
20240625045656 62 120 1.0 6.0 0.00 0.02 0.00 85 1014.7
20240625045157 62 97 1.0 6.0 0.00 0.02 0.00 86 1014.7
20240625044656 62 140 1.0 6.0 0.00 0.02 0.00 86 1014.7
20240625044153 61 203 2.0 7.0 0.00 0.02 0.00 87 1014.6
20240625043649 61 130 1.0 7.0 0.00 0.02 0.00 87 1014.6
20240625042653 60 117 1.0 6.0 0.00 0.02 0.00 89 1014.6
20240625041650 60 139 0.0 2.0 0.00 0.02 0.00 90 1014.6
20240625041149 59 173 0.0 3.0 0.00 0.02 0.00 90 1014.6
20240625040650 59 144 0.0 3.0 0.00 0.02 0.00 91 1014.6
20240625040145 59 142 1.0 4.0 0.00 0.02 0.00 91 1014.6
20240625035644 59 126 0.0 4.0 0.00 0.02 0.00 92 1014.5
20240625035142 58 96 0.0 2.0 0.00 0.02 0.00 92 1014.5
20240625034646 58 71 0.0 3.0 0.00 0.02 0.00 92 1014.5
20240625034143 58 98 1.0 3.0 0.00 0.02 0.00 92 1014.4
20240625033646 58 65 1.0 3.0 0.00 0.02 0.00 92 1014.2
20240625033141 59 72 0.0 2.0 0.00 0.02 0.00 92 1014.2
20240625032641 59 70 0.0 2.0 0.00 0.02 0.00 91 1014.4
20240625032139 59 103 0.0 3.0 0.00 0.02 0.00 92 1014.4
20240625031637 60 107 1.0 4.0 0.00 0.02 0.00 92 1014.4
20240625031153 60 76 1.0 4.0 0.00 0.02 0.00 92 1014.2
20240625030637 60 79 2.0 6.0 0.00 0.02 0.00 92 1014.1
20240625030135 60 99 1.0 6.0 0.00 0.02 0.00 92 1014.1
20240625025128 60 94 2.0 8.0 0.00 0.02 0.00 92 1014.1
20240625024628 60 120 3.0 8.0 0.00 0.02 0.00 92 1014.1
20240625023629 60 96 1.0 6.0 0.00 0.02 0.00 92 1014.2
20240625022127 60 121 0.0 2.0 0.00 0.02 0.00 92 1014.1
20240625021626 60 122 0.0 2.0 0.00 0.02 0.00 92 1014.0
20240625021129 60 120 0.0 3.0 0.00 0.02 0.00 92 1014.0
20240625020625 61 134 0.0 3.0 0.00 0.02 0.00 92 1014.1
20240625015626 61 114 0.0 2.0 0.00 0.02 0.00 92 1014.2
20240625015125 61 131 0.0 1.0 0.00 0.02 0.00 92 1014.2
20240625014125 61 154 0.0 1.0 0.00 0.02 0.00 92 1014.4
20240625013626 61 129 0.0 1.0 0.00 0.02 0.00 92 1014.4
20240625012122 61 152 0.0 3.0 0.00 0.02 0.00 91 1014.2
20240625011620 61 153 0.0 3.0 0.00 0.02 0.00 91 1014.1
20240625011120 61 229 0.0 2.0 0.00 0.02 0.00 91 1014.1
20240625005616 61 236 0.0 3.0 0.00 0.02 0.00 91 1014.4
20240625005120 61 238 0.0 3.0 0.00 0.02 0.00 91 1014.2
20240625004618 61 221 0.0 2.0 0.00 0.02 0.00 91 1014.4
20240625004126 61 220 0.0 2.0 0.00 0.02 0.00 91 1014.5
20240625003617 61 203 0.0 3.0 0.00 0.02 0.00 91 1014.5
20240625003110 61 188 0.0 3.0 0.00 0.02 0.00 91 1014.5
20240625002605 61 165 1.0 3.0 0.00 0.02 0.00 91 1014.6
20240625002103 61 132 1.0 5.0 0.00 0.02 0.00 91 1014.6
20240625001602 61 155 1.0 5.0 0.00 0.02 0.00 91 1014.6
20240625001101 61 166 0.0 2.0 0.00 0.02 0.00 91 1014.6
20240625000600 61 141 0.0 2.0 0.00 0.02 0.00 91 1014.6
20240625000057 61 205 0.0 2.0 0.00 0.02 0.00 91 1014.5
20240624235556 61 148 0.0 1.0 0.00 0.02 0.00 91 1014.6
20240624235055 61 127 0.0 3.0 0.00 0.02 0.00 90 1014.6
20240624234554 61 154 0.0 3.0 0.00 0.02 0.00 90 1014.7
20240624234053 61 141 0.0 2.0 0.00 0.02 0.00 90 1014.6
20240624233553 61 233 0.0 2.0 0.00 0.02 0.00 90 1014.7
20240624233049 61 122 0.0 2.0 0.00 0.02 0.00 90 1014.6
20240624232549 61 134 0.0 1.0 0.00 0.02 0.00 90 1014.5
20240624232053 61 127 0.0 2.0 0.00 0.02 0.00 90 1014.6
20240624231551 61 157 1.0 2.0 0.00 0.02 0.00 90 1014.7
20240624230550 61 134 1.0 5.0 0.00 0.02 0.00 89 1014.6
20240624230052 61 160 1.0 5.0 0.00 0.02 0.00 89 1014.7
20240624225549 61 163 1.0 4.0 0.00 0.02 0.00 89 1014.7
20240624225049 62 214 2.0 8.0 0.00 0.02 0.00 89 1014.8
20240624224550 62 126 2.0 8.0 0.00 0.02 0.00 89 1014.9
20240624224052 62 135 2.0 7.0 0.00 0.02 0.00 89 1014.9
20240624223554 62 162 1.0 6.0 0.00 0.02 0.00 88 1014.8
20240624223052 62 125 1.0 5.0 0.00 0.02 0.00 88 1015.0
20240624222552 62 122 1.0 4.0 0.00 0.02 0.00 88 1015.0
20240624221048 62 101 2.0 7.0 0.00 0.02 0.00 86 1014.8
20240624220546 61 94 2.0 6.0 0.00 0.02 0.00 85 1014.8
20240624220047 62 141 2.0 6.0 0.00 0.02 0.00 84 1014.7
20240624215548 62 101 2.0 6.0 0.00 0.02 0.02 84 1014.8
20240624215049 62 120 2.0 5.0 0.00 0.02 0.02 83 1014.8
20240624214547 62 107 3.0 6.0 0.00 0.02 0.02 82 1014.8
20240624214047 62 102 3.0 6.0 0.00 0.02 0.02 82 1014.8
20240624213547 62 107 2.0 5.0 0.00 0.02 0.02 80 1014.8
20240624213049 62 136 1.0 5.0 0.00 0.02 0.02 79 1014.7
20240624212545 62 120 1.0 4.0 0.00 0.02 0.02 76 1014.6
20240624212046 63 236 0.0 4.0 0.00 0.02 0.02 74 1014.6
20240624211548 63 206 0.0 3.0 0.00 0.02 0.02 73 1014.6
20240624211047 63 145 0.0 3.0 0.00 0.02 0.02 73 1014.7
20240624210546 63 145 0.0 4.0 0.00 0.02 0.02 73 1014.6
20240624210048 64 132 1.0 9.0 0.00 0.02 0.02 71 1014.6
20240624205548 64 171 3.0 9.0 0.00 0.02 0.02 68 1014.6
20240624205043 64 122 4.0 9.0 0.00 0.02 0.02 69 1014.5
20240624204543 64 87 5.0 9.0 0.00 0.02 0.02 69 1014.5
20240624204044 64 86 4.0 9.0 0.00 0.02 0.02 71 1014.4
20240624203545 64 85 4.0 9.0 0.00 0.02 0.02 74 1014.5
20240624202544 63 99 2.0 7.0 0.00 0.02 0.02 82 1014.5
20240624201545 64 97 2.0 6.0 0.00 0.02 0.02 85 1014.6
20240624201044 64 103 2.0 6.0 0.00 0.02 0.02 87 1014.6
20240624200543 64 81 3.0 6.0 0.00 0.02 0.02 87 1014.5
20240624200044 63 72 3.0 7.0 0.00 0.02 0.02 87 1014.5
20240624195543 63 84 3.0 7.0 0.00 0.02 0.02 88 1014.4
20240624195046 63 54 3.0 8.0 0.00 0.02 0.02 89 1014.4
20240624194044 63 69 4.0 8.0 0.00 0.02 0.02 89 1014.2
20240624193043 63 33 5.0 8.0 0.00 0.02 0.02 89 1014.2
20240624192542 63 41 4.0 7.0 0.00 0.02 0.02 88 1014.2
20240624192040 63 56 4.0 7.0 0.00 0.02 0.02 88 1014.1
20240624191541 63 54 3.0 7.0 0.00 0.02 0.02 89 1013.9
20240624191043 63 62 3.0 7.0 0.00 0.02 0.02 90 1014.0
20240624190039 63 44 4.0 9.0 0.00 0.02 0.02 91 1013.8
20240624185540 63 94 5.0 9.0 0.00 0.02 0.02 91 1013.8
20240624185041 63 60 5.0 11.0 0.00 0.02 0.02 91 1013.7
20240624184539 63 76 5.0 11.0 0.00 0.02 0.02 91 1013.8
20240624183535 63 46 6.0 9.0 0.00 0.02 0.02 90 1013.8
20240624183036 63 50 5.0 9.0 0.00 0.02 0.02 90 1013.7
20240624182536 63 40 5.0 10.0 0.00 0.02 0.02 90 1013.7
20240624182032 63 49 6.0 11.0 0.00 0.02 0.02 89 1013.7
20240624181530 64 58 7.0 12.0 0.00 0.02 0.02 89 1013.7
20240624181031 64 42 7.0 12.0 0.00 0.02 0.02 89 1013.7
20240624180531 64 39 7.0 12.0 0.00 0.02 0.02 88 1013.8
20240624180030 64 63 7.0 11.0 0.00 0.02 0.02 88 1013.7
20240624175531 64 62 6.0 12.0 0.00 0.02 0.02 88 1013.7
20240624174534 64 60 7.0 15.0 0.00 0.02 0.02 87 1013.6
20240624174031 64 52 7.0 15.0 0.00 0.02 0.02 87 1013.6
20240624173531 65 60 6.0 13.0 0.00 0.02 0.02 86 1013.6
20240624173031 65 33 7.0 14.0 0.00 0.02 0.02 86 1013.6
20240624172533 65 34 7.0 14.0 0.00 0.02 0.02 87 1013.6
20240624172045 65 33 7.0 14.0 0.00 0.02 0.02 87 1013.5
20240624171545 65 32 6.0 14.0 0.00 0.02 0.02 86 1013.5
20240624171026 65 48 6.0 12.0 0.00 0.02 0.02 85 1013.6
20240624170522 66 41 5.0 9.0 0.00 0.02 0.02 84 1013.4
20240624170028 66 67 5.0 9.0 0.00 0.02 0.02 83 1013.5
20240624165524 67 331 5.0 10.0 0.00 0.02 0.02 81 1013.3
20240624165022 67 36 4.0 11.0 0.00 0.02 0.02 80 1013.4
20240624164528 69 14 1.0 11.0 0.00 0.02 0.02 77 1013.4
20240624164019 69 62 0.0 2.0 0.00 0.02 0.02 76 1013.4
20240624163520 69 32 0.0 2.0 0.00 0.02 0.02 76 1013.3
20240624162518 69 309 1.0 4.0 0.00 0.02 0.02 75 1012.9
20240624162019 69 252 1.0 5.0 0.00 0.02 0.02 75 1012.9
20240624161516 69 277 1.0 5.0 0.00 0.02 0.02 75 1012.8
20240624161015 70 239 1.0 3.0 0.00 0.02 0.02 75 1012.8
20240624160517 70 262 2.0 4.0 0.00 0.02 0.02 75 1012.7
20240624160013 70 290 3.0 7.0 0.00 0.02 0.02 73 1012.6
20240624155513 71 265 3.0 7.0 0.00 0.02 0.02 71 1012.7
20240624155014 71 220 4.0 8.0 0.00 0.02 0.02 70 1012.7
20240624154010 72 210 4.0 9.0 0.00 0.02 0.02 69 1012.7
20240624153511 72 259 4.0 8.0 0.00 0.02 0.02 68 1012.5
20240624153011 71 226 3.0 6.0 0.00 0.02 0.02 68 1012.7
20240624151513 72 264 2.0 9.0 0.00 0.02 0.02 66 1012.6
20240624151008 72 211 2.0 7.0 0.00 0.02 0.02 65 1012.6
20240624150511 72 260 2.0 6.0 0.00 0.02 0.02 65 1012.7
20240624150008 73 255 2.0 6.0 0.00 0.02 0.02 64 1012.8
20240624145508 74 260 2.0 5.0 0.00 0.02 0.02 64 1012.8
20240624145008 73 196 1.0 6.0 0.00 0.02 0.02 64 1012.8
20240624144504 73 290 3.0 8.0 0.00 0.02 0.02 63 1012.8
20240624143956 72 172 4.0 9.0 0.00 0.02 0.02 66 1013.0
20240624143452 73 222 5.0 10.0 0.00 0.02 0.02 66 1012.9
20240624142954 73 185 5.0 10.0 0.00 0.02 0.02 64 1012.8
20240624142455 73 220 4.0 10.0 0.00 0.02 0.02 65 1012.8